sat.trackr.live / text

‹ back to catalog

STARLINK-35897

NORAD 66501 · 2025-263S

PAYLOAD ACTIVE UNKNOWN

§ Identity

Operator
Country
US
Launch date
2025-11-15
Launch site
AFETR
Launch vehicle
Mass (kg)
RCS (m²)

Purposes: comms

External: N2YO · Heavens-Above · Gunter

§ Orbital elements

Epoch: 2026-05-25T02:16:42.034080Z

Period
94.27 min
Inclination
43.0021°
Eccentricity
0.0003201
Mean motion
15.27588013 rev/d
Perigee alt
480.8 km
Apogee alt
485.2 km
Semi-major
6,861.2 km
B*
3.8985e-4
RAAN
279.2471°
Arg perigee
273.7837°
Mean anomaly
86.2648°
Rev number
3,058

§ Raw data

STARLINK-358971 66501U 25263S   26145.09493095  .00010484  00000+0  38985-3 0  99952 66501  43.0021 279.2471 0003201 273.7837  86.2648 15.27588013 30585

JSON: /api/v1/satellites/66501 · /tle

For live sub-satellite position, see the globe view (requires WebGL).

§ Visibility from observer

Set your observer location to see the next 7 days of passes ≥ 10°. The values pass through the URL so the page stays shareable.

No JS? Fill the form by hand. The geolocation button needs JavaScript.